"startDT [UTC]","vpos","CH4 [ppm]","stdev(CH4) [ppm]","CO2 [ppm]","stdev(CO2) [ppm]","H2O [ppm]","stdev(H2O)","p_LGR [torr]","T_LGR [C]","mt1_LGR [us]","mt2_LGR [us]","T_ECpre [C]","T_EC1 [C]","T_EC2 [C]","p_inlet [hPa]","p_in [hPa]","p_out [hPa]","T_inlet [C]","RH_inlet [%]","dwpt_inlet [C]","T_vent [C]","RH_vent [%]","dwpt_vent [C]","flow_vent [l min-1]","flow_inlet [l min-1]","dwpt_sample [C]","T_room [C]"
2012-05-22 00:00:00,0.0,1.8919,0.0009,403.07,0.20,2.7,10.9,138.08,30.05,24.64,36.44,1.05,-21.54,-27.50,-58,547,-929,25.2,10.3,-8.2,25.2,1.3,-32.4,5.73,2.36,-29.0,29.3
2012-05-22 00:01:00,0.0,1.8915,0.0011,402.95,0.22,3.6,12.7,138.08,30.05,24.64,36.45,0.99,-22.06,-27.52,-58,547,-929,25.2,10.4,-8.1,25.2,1.2,-32.5,5.73,2.37,-29.0,29.3
2012-05-22 00:02:00,0.0,1.8916,0.0010,402.95,0.24,2.1,9.9,138.08,30.05,24.64,36.45,0.95,-22.54,-27.53,-58,547,-929,25.2,10.5,-8.0,25.2,1.3,-32.4,5.73,2.37,-29.0,29.3
2012-05-22 00:03:00,0.0,1.8918,0.0010,403.02,0.21,4.0,11.2,138.08,30.05,24.64,36.45,0.99,-23.01,-27.54,-58,547,-929,25.2,10.6,-7.8,25.2,1.3,-32.4,5.73,2.37,-29.0,29.3
2012-05-22 00:04:00,0.0,1.8918,0.0008,403.03,0.19,2.9,9.7,138.08,30.05,24.64,36.45,1.04,-23.45,-27.56,-58,547,-929,25.2,10.7,-7.7,25.2,1.3,-32.4,5.73,2.37,-29.0,29.3
2012-05-22 00:05:00,0.0,1.8918,0.0009,402.93,0.26,3.1,11.9,138.08,30.04,24.64,36.45,1.03,-23.87,-27.57,-58,547,-929,25.2,10.8,-7.7,25.2,1.3,-32.3,5.73,2.37,-28.9,29.4
2012-05-22 00:06:00,0.0,1.8920,0.0009,402.99,0.22,3.1,10.0,138.08,30.04,24.64,36.45,0.98,-24.25,-27.57,-58,547,-929,25.2,10.8,-7.6,25.2,1.3,-32.4,5.73,2.37,-28.9,29.4
2012-05-22 00:07:00,0.0,1.8918,0.0010,403.10,0.22,2.1,7.5,138.08,30.04,24.64,36.44,0.95,-24.62,-27.58,-59,547,-929,25.2,10.8,-7.6,25.2,1.2,-32.4,5.73,2.37,-29.0,29.3
2012-05-22 00:08:00,0.0,1.8917,0.0009,402.89,0.24,2.2,7.6,138.08,30.04,24.64,36.45,1.00,-24.96,-27.59,-59,547,-929,25.2,10.7,-7.6,25.2,1.2,-32.4,5.73,2.37,-29.0,29.3
2012-05-22 00:09:00,0.0,1.8913,0.0008,402.94,0.21,2.7,10.1,138.08,30.04,24.64,36.44,1.03,-25.29,-27.60,-59,547,-929,25.2,10.8,-7.6,25.2,1.3,-32.4,5.73,2.37,-28.9,29.4
2012-05-22 00:10:00,0.0,1.8913,0.0009,402.84,0.22,2.7,8.2,138.08,30.04,24.64,36.45,1.03,-25.60,-27.61,-59,547,-929,25.2,10.8,-7.6,25.2,1.3,-32.3,5.73,2.37,-28.9,29.4
2012-05-22 00:11:00,0.0,1.8916,0.0009,402.88,0.22,2.4,9.1,138.08,30.04,24.64,36.45,0.97,-25.90,-27.62,-59,547,-929,25.3,10.8,-7.6,25.2,1.2,-32.4,5.73,2.37,-28.9,29.4
2012-05-22 00:12:00,0.0,1.8915,0.0009,402.97,0.22,3.7,13.4,138.08,30.04,24.64,36.45,0.95,-26.16,-27.63,-59,547,-929,25.2,10.8,-7.6,25.2,1.2,-32.5,5.73,2.38,-28.9,29.4
2012-05-22 00:13:00,0.0,1.8917,0.0008,403.01,0.21,3.3,11.4,138.08,30.04,24.64,36.45,0.98,-26.42,-27.63,-59,547,-929,25.3,10.8,-7.5,25.2,1.2,-32.6,5.73,2.38,-28.9,29.4
2012-05-22 00:14:00,0.0,1.8914,0.0009,403.01,0.21,2.6,12.4,138.08,30.04,24.64,36.45,1.02,-26.66,-27.65,-59,547,-929,25.3,10.8,-7.6,25.2,1.2,-32.6,5.73,2.37,-28.9,29.4
2012-05-22 00:15:00,0.0,1.8915,0.0009,402.96,0.19,1.7,8.4,138.08,30.04,24.64,36.45,1.05,-26.88,-27.65,-59,547,-929,25.2,10.8,-7.5,25.2,1.2,-32.6,5.73,2.38,-28.9,29.4
2012-05-22 00:16:00,0.0,1.8911,0.0010,402.83,0.19,2.2,8.4,138.08,30.04,24.64,36.45,0.99,-27.09,-27.65,-59,547,-929,25.3,10.9,-7.4,25.2,1.2,-32.6,5.73,2.38,-28.9,29.4
2012-05-22 00:17:00,0.0,1.8913,0.0009,402.85,0.21,3.8,12.6,138.08,30.04,24.64,36.45,0.96,-27.29,-27.66,-59,547,-929,25.3,10.9,-7.4,25.2,1.2,-32.6,5.73,2.38,-28.9,29.5
2012-05-22 00:18:00,0.0,1.8917,0.0009,402.94,0.23,0.8,5.3,138.08,30.04,24.64,36.45,0.97,-27.48,-27.67,-59,547,-929,25.3,11.0,-7.3,25.3,1.2,-32.6,5.73,2.38,-28.9,29.5
2012-05-22 00:19:00,0.0,1.8915,0.0008,402.99,0.23,3.9,12.4,138.08,30.04,24.64,36.44,0.94,-27.61,-27.67,-59,547,-929,25.3,11.1,-7.2,25.2,1.2,-32.6,5.73,2.37,-28.9,29.4
2012-05-22 00:20:00,0.0,1.8917,0.0010,403.08,0.24,2.3,8.5,138.08,30.04,24.64,36.45,0.99,-27.29,-27.67,-59,547,-929,25.3,11.2,-7.1,25.2,1.2,-32.6,5.73,2.37,-28.9,29.4
2012-05-22 00:21:00,0.0,1.8911,0.0010,403.01,0.21,4.4,12.0,138.08,30.05,24.65,36.44,1.02,-27.30,-27.68,-59,547,-929,25.3,11.3,-7.0,25.3,1.2,-32.6,5.73,2.37,-28.9,29.4
2012-05-22 00:22:00,0.0,1.8916,0.0009,402.96,0.21,3.5,9.0,138.08,30.05,24.64,36.45,1.04,-27.45,-27.69,-59,547,-929,25.3,11.4,-6.9,25.3,1.2,-32.6,5.73,2.37,-28.9,29.4
2012-05-22 00:23:00,0.0,1.8916,0.0009,402.99,0.17,2.6,9.0,138.08,30.05,24.64,36.45,1.01,-27.61,-27.69,-59,547,-929,25.3,11.4,-6.8,25.3,1.2,-32.6,5.73,2.37,-28.9,29.5
2012-05-22 00:24:00,0.0,1.8916,0.0010,402.88,0.20,1.4,7.9,138.08,30.05,24.64,36.45,0.93,-27.43,-27.69,-59,547,-929,25.3,11.5,-6.7,25.3,1.2,-32.5,5.73,2.37,-28.9,29.5
2012-05-22 00:25:00,0.0,1.8916,0.0009,402.97,0.23,1.5,7.0,138.08,30.05,24.64,36.45,0.98,-27.29,-27.69,-59,548,-929,25.3,11.5,-6.7,25.3,1.2,-32.6,5.73,2.37,-28.9,29.4
2012-05-22 00:26:00,0.0,1.8916,0.0009,403.05,0.24,4.9,15.3,138.08,30.05,24.64,36.45,0.94,-27.41,-27.70,-59,547,-929,25.3,11.6,-6.6,25.3,1.2,-32.6,5.73,2.37,-28.9,29.5
2012-05-22 00:27:00,0.0,1.8914,0.0009,402.97,0.21,2.2,9.2,138.08,30.05,24.64,36.45,0.97,-27.57,-27.71,-59,548,-929,25.3,11.7,-6.5,25.3,1.2,-32.6,5.73,2.37,-28.9,29.5
2012-05-22 00:28:00,0.0,1.8920,0.0009,403.01,0.22,4.4,14.2,138.08,30.05,24.64,36.45,0.92,-27.59,-27.71,-59,548,-929,25.3,11.7,-6.5,25.3,1.2,-32.6,5.73,2.37,-28.9,29.5
2012-05-22 00:29:00,0.0,1.8915,0.0009,402.99,0.22,3.0,8.6,138.08,30.05,24.64,36.45,1.01,-27.29,-27.69,-59,548,-929,25.3,11.8,-6.4,25.3,1.2,-32.4,5.73,2.37,-28.9,29.5
2012-05-22 00:30:00,0.0,1.8914,0.0010,402.88,0.22,2.1,8.6,138.08,30.05,24.64,36.45,0.85,-27.39,-26.83,-59,548,-929,25.3,11.9,-6.3,25.3,1.2,-32.8,5.73,2.37,-28.9,29.5
2012-05-22 00:31:00,0.0,1.8911,0.0008,402.97,0.23,1.0,7.0,138.08,30.05,24.64,36.45,0.95,-27.54,-24.99,-59,548,-929,25.3,12.0,-6.2,25.3,1.2,-32.4,5.73,2.37,-28.9,29.5
2012-05-22 00:32:00,0.0,1.8914,0.0010,402.99,0.21,3.2,9.9,138.08,30.05,24.64,36.44,0.97,-27.63,-22.99,-59,548,-929,25.3,12.1,-6.0,25.3,1.3,-31.7,5.73,2.37,-28.9,29.5
2012-05-22 00:33:00,0.0,1.8916,0.0010,402.94,0.21,2.3,8.7,138.08,30.05,24.64,36.45,0.82,-27.67,-21.03,-59,548,-929,25.3,12.3,-5.8,25.3,1.4,-31.2,5.73,2.37,-28.9,29.5
2012-05-22 00:34:00,0.0,1.8911,0.0008,402.91,0.21,3.1,13.5,138.08,30.05,24.64,36.45,0.79,-27.69,-19.15,-59,548,-929,25.3,12.4,-5.7,25.3,1.4,-30.8,5.73,2.37,-28.9,29.5
2012-05-22 00:35:00,0.0,1.8913,0.0010,402.99,0.20,2.9,12.6,138.08,30.05,24.64,36.44,0.89,-27.69,-17.36,-59,548,-929,25.3,12.5,-5.6,25.3,1.5,-30.7,5.73,2.38,-29.0,29.5
2012-05-22 00:36:00,0.0,1.8913,0.0012,403.01,0.23,1.4,7.4,138.08,30.05,24.64,36.44,0.95,-27.69,-15.65,-59,548,-929,25.3,12.5,-5.6,25.3,1.5,-30.6,5.73,2.37,-29.0,29.5
2012-05-22 00:37:00,0.0,1.8908,0.0008,402.92,0.21,3.7,9.3,138.08,30.06,24.64,36.45,0.93,-27.67,-14.03,-59,548,-929,25.3,12.5,-5.6,25.3,1.5,-30.6,5.73,2.37,-29.0,29.5
2012-05-22 00:38:00,0.0,1.8911,0.0011,402.85,0.23,4.0,13.9,138.08,30.06,24.64,36.45,0.78,-27.65,-12.50,-59,548,-929,25.3,12.6,-5.5,25.3,1.5,-30.7,5.73,2.37,-29.0,29.5
2012-05-22 00:39:00,0.0,1.8912,0.0008,402.90,0.24,0.4,5.0,138.08,30.06,24.64,36.45,0.85,-27.63,-11.04,-59,548,-929,25.3,12.6,-5.5,25.3,1.4,-30.8,5.73,2.37,-29.0,29.5
2012-05-22 00:40:00,0.0,1.8911,0.0008,402.87,0.23,1.2,6.2,138.08,30.06,24.64,36.46,0.90,-27.61,-9.66,-59,548,-929,25.3,12.6,-5.5,25.3,1.4,-30.8,5.73,2.37,-29.0,29.4
2012-05-22 00:41:00,0.0,1.8911,0.0009,402.87,0.24,1.2,8.5,138.08,30.06,24.64,36.45,0.95,-27.58,-8.35,-59,548,-929,25.3,12.7,-5.4,25.3,1.4,-30.8,5.73,2.37,-29.0,29.5
2012-05-22 00:42:00,0.0,1.8909,0.0008,402.92,0.23,2.9,10.1,138.08,30.06,24.64,36.45,0.93,-27.56,-7.10,-59,548,-929,25.3,12.7,-5.4,25.3,1.4,-30.8,5.73,2.38,-29.0,29.5
2012-05-22 00:43:00,0.0,1.8910,0.0009,402.97,0.19,3.3,11.1,138.08,30.06,24.64,36.45,0.80,-27.54,-5.92,-59,548,-929,25.3,12.7,-5.4,25.3,1.4,-31.0,5.73,2.37,-29.0,29.5
2012-05-22 00:44:00,0.0,1.8910,0.0008,402.86,0.18,1.3,10.2,138.08,30.06,24.64,36.45,0.85,-27.51,-4.79,-59,548,-929,25.3,12.8,-5.3,25.3,1.4,-31.1,5.73,2.37,-29.0,29.5
2012-05-22 00:45:00,0.0,1.8908,0.0010,402.88,0.25,2.7,11.6,138.08,30.06,24.64,36.45,0.89,-27.50,-3.71,-59,548,-929,25.3,12.8,-5.3,25.3,1.4,-31.0,5.73,2.37,-29.0,29.5
2012-05-22 00:46:00,0.0,1.8913,0.0010,402.93,0.23,2.9,11.0,138.08,30.06,24.64,36.45,0.93,-27.47,-2.69,-59,548,-929,25.3,12.7,-5.3,25.3,1.4,-31.1,5.73,2.37,-29.0,29.5
2012-05-22 00:47:00,0.0,1.8908,0.0008,402.91,0.21,2.2,8.5,138.08,30.06,24.64,36.45,0.95,-27.45,-1.71,-59,548,-929,25.3,12.7,-5.4,25.3,1.4,-31.1,5.73,2.36,-29.0,29.5
2012-05-22 00:48:00,0.0,1.8913,0.0008,402.96,0.21,1.1,7.0,138.08,30.06,24.64,36.45,0.92,-27.43,-0.79,-59,548,-929,25.3,12.6,-5.4,25.3,1.4,-31.3,5.73,2.37,-29.0,29.6
2012-05-22 00:49:00,0.0,1.8910,0.0009,402.95,0.17,2.6,12.0,138.08,30.06,24.64,36.45,0.85,-27.40,0.10,-59,548,-929,25.3,12.5,-5.6,25.3,1.4,-31.2,5.73,2.37,-29.0,29.5
2012-05-22 00:50:00,0.0,1.8912,0.0009,402.85,0.21,2.2,8.4,138.08,30.06,24.64,36.46,0.86,-27.38,0.94,-59,548,-929,25.3,12.4,-5.7,25.3,1.4,-31.4,5.73,2.37,-28.9,29.5
2012-05-22 00:51:00,0.0,1.8911,0.0008,402.94,0.22,4.1,11.5,138.08,30.06,24.64,36.44,0.89,-27.37,1.73,-59,548,-929,25.3,12.4,-5.7,25.4,1.4,-31.5,5.73,2.37,-28.9,29.5
2012-05-22 00:52:00,0.0,1.8906,0.0009,402.96,0.24,2.3,9.2,138.08,30.07,24.64,36.45,0.92,-27.35,2.46,-59,548,-929,25.3,12.4,-5.7,25.3,1.4,-31.4,5.73,2.37,-28.9,29.5
2012-05-22 00:53:00,0.0,1.8911,0.0009,402.80,0.22,2.4,7.3,138.08,30.07,24.64,36.46,0.95,-27.33,3.03,-59,548,-929,25.3,12.4,-5.7,25.3,1.4,-31.4,5.73,2.37,-28.9,29.5
2012-05-22 00:54:00,0.0,1.8912,0.0009,402.95,0.23,2.8,9.8,138.08,30.07,24.64,36.45,0.97,-27.32,3.39,-59,548,-929,25.3,12.4,-5.7,25.3,1.4,-31.4,5.73,2.37,-28.9,29.5
2012-05-22 00:55:00,0.0,1.8909,0.0008,402.94,0.21,2.9,9.7,138.08,30.07,24.64,36.45,0.90,-27.30,3.82,-58,548,-929,25.3,12.5,-5.6,25.4,1.4,-31.5,5.73,2.37,-28.9,29.5
2012-05-22 00:56:00,0.0,1.8912,0.0010,402.83,0.21,4.1,11.3,138.08,30.07,24.64,36.45,0.84,-27.28,4.35,-59,548,-929,25.3,12.5,-5.6,25.3,1.3,-31.5,5.73,2.37,-28.9,29.5
2012-05-22 00:57:00,0.0,1.8910,0.0010,402.91,0.27,1.4,7.1,138.08,30.07,24.64,36.45,0.86,-27.26,4.95,-59,548,-929,25.3,12.4,-5.7,25.3,1.3,-31.7,5.73,2.36,-28.9,29.5
2012-05-22 00:58:00,0.0,1.8909,0.0009,402.85,0.25,2.3,7.4,138.08,30.07,24.64,36.45,0.89,-27.25,5.55,-59,548,-929,25.3,12.5,-5.6,25.3,1.3,-31.6,5.73,2.37,-28.9,29.5
2012-05-22 00:59:00,0.0,1.8909,0.0009,402.92,0.21,4.7,13.9,138.08,30.08,24.64,36.45,0.92,-27.24,6.11,-59,548,-929,25.4,12.5,-5.6,25.4,1.3,-31.7,5.73,2.37,-28.9,29.5
2012-05-22 01:00:00,0.0,1.8909,0.0008,402.91,0.22,3.8,11.8,138.08,30.08,24.64,36.45,0.95,-27.22,6.66,-59,548,-929,25.4,12.5,-5.5,25.4,1.3,-31.7,5.73,2.37,-28.8,29.6
2012-05-22 01:01:00,0.0,1.8909,0.0010,402.97,0.23,3.4,8.8,138.08,30.08,24.64,36.45,0.96,-27.21,7.16,-59,548,-929,25.4,12.6,-5.5,25.4,1.3,-31.6,5.73,2.37,-28.8,29.5
2012-05-22 01:02:00,0.0,1.8910,0.0010,402.93,0.25,6.7,16.4,138.08,30.08,24.64,36.46,0.91,-27.19,7.65,-59,548,-929,25.4,12.6,-5.4,25.4,1.3,-31.6,5.73,2.37,-28.8,29.6
2012-05-22 01:03:00,0.0,1.8909,0.0009,402.93,0.22,3.2,10.0,138.08,30.08,24.64,36.45,0.86,-27.17,8.11,-59,548,-929,25.4,12.7,-5.4,25.3,1.3,-31.6,5.73,2.36,-28.8,29.5
2012-05-22 01:04:00,0.0,1.8910,0.0009,402.99,0.22,5.0,15.2,138.08,30.08,24.64,36.45,0.88,-27.16,8.55,-59,548,-929,25.4,12.8,-5.3,25.4,1.3,-31.7,5.73,2.36,-28.8,29.5
2012-05-22 01:05:00,0.0,1.8913,0.0010,403.05,0.19,4.0,9.8,138.08,30.08,24.64,36.45,0.91,-27.15,8.98,-59,548,-929,25.4,12.8,-5.2,25.4,1.3,-31.6,5.73,2.37,-28.8,29.6
2012-05-22 01:06:00,0.0,1.8908,0.0009,402.95,0.24,6.2,16.6,138.08,30.08,24.64,36.45,0.91,-27.14,9.40,-59,548,-929,25.4,12.8,-5.2,25.4,1.3,-31.6,5.73,2.37,-28.8,29.5
2012-05-22 01:07:00,0.0,1.8909,0.0008,402.97,0.22,3.9,11.7,138.08,30.08,24.64,36.45,0.93,-27.12,9.79,-59,548,-929,25.4,12.9,-5.2,25.4,1.3,-31.6,5.73,2.37,-28.8,29.5
2012-05-22 01:08:00,0.0,1.8911,0.0010,403.05,0.18,3.1,7.9,138.08,30.08,24.64,36.45,0.95,-27.11,10.19,-59,548,-929,25.4,12.9,-5.1,25.4,1.3,-31.6,5.73,2.36,-28.8,29.6
2012-05-22 01:09:00,0.0,1.8920,0.0011,403.11,0.22,2.0,10.3,138.08,30.09,24.64,36.44,0.96,-27.09,10.56,-59,548,-929,25.4,12.9,-5.1,25.4,1.3,-31.6,5.73,2.37,-28.8,29.6
2012-05-22 01:10:00,0.0,1.8915,0.0008,403.09,0.23,2.7,10.0,138.08,30.09,24.64,36.45,0.94,-27.08,10.92,-59,548,-929,25.4,12.9,-5.1,25.4,1.3,-31.6,5.73,2.36,-28.8,29.6
2012-05-22 01:11:00,0.0,1.8915,0.0009,403.03,0.24,1.1,5.4,138.08,30.09,24.64,36.45,0.88,-27.07,11.27,-59,548,-929,25.4,12.8,-5.2,25.4,1.3,-31.6,5.73,2.36,-28.8,29.6
2012-05-22 01:12:00,0.0,1.8911,0.0009,403.07,0.21,4.0,12.4,138.08,30.09,24.64,36.45,0.87,-27.06,11.60,-59,548,-929,25.4,12.8,-5.2,25.4,1.3,-31.6,5.73,2.37,-28.8,29.6
2012-05-22 01:13:00,0.0,1.8913,0.0009,403.03,0.21,1.6,6.5,138.07,30.10,24.64,36.45,0.89,-27.05,11.92,-59,548,-929,25.4,12.8,-5.2,25.4,1.3,-31.6,5.73,2.36,-28.8,29.6
2012-05-22 01:14:00,0.0,1.8917,0.0009,403.16,0.25,2.6,7.7,138.08,30.10,24.64,36.44,0.91,-27.04,12.22,-59,548,-929,25.4,12.8,-5.2,25.4,1.3,-31.6,5.73,2.36,-28.7,29.6
2012-05-22 01:15:00,0.0,1.8917,0.0008,403.11,0.23,0.3,4.9,138.08,30.10,24.64,36.45,0.91,-27.04,12.52,-59,548,-929,25.5,12.7,-5.2,25.4,1.3,-31.6,5.73,2.36,-28.7,29.6
2012-05-22 01:16:00,0.0,1.8927,0.0010,403.22,0.24,1.3,6.8,138.07,30.10,24.64,36.45,0.93,-27.02,12.80,-58,548,-929,25.5,12.7,-5.3,25.4,1.3,-31.6,5.73,2.37,-28.7,29.6
2012-05-22 01:17:00,0.0,1.8923,0.0009,403.16,0.24,3.3,12.0,138.07,30.11,24.64,36.45,0.95,-27.02,13.07,-59,548,-929,25.5,12.5,-5.5,25.4,1.3,-31.6,5.73,2.37,-28.7,29.6
2012-05-22 01:18:00,0.0,1.8920,0.0010,403.16,0.23,3.4,11.2,138.07,30.11,24.64,36.45,0.95,-27.01,13.33,-59,548,-929,25.5,12.3,-5.7,25.5,1.3,-31.5,5.73,2.36,-28.7,29.6
2012-05-22 01:19:00,0.0,1.8918,0.0010,403.17,0.21,2.6,9.7,138.07,30.11,24.64,36.45,0.95,-27.00,13.57,-59,548,-929,25.5,12.2,-5.8,25.5,1.3,-31.6,5.73,2.36,-28.7,29.6
2012-05-22 01:20:00,0.0,1.8924,0.0009,403.25,0.19,2.1,9.3,138.07,30.11,24.64,36.45,0.91,-26.99,13.81,-59,548,-929,25.5,12.1,-5.9,25.4,1.3,-31.6,5.73,2.37,-28.7,29.6
2012-05-22 01:21:00,0.0,1.8923,0.0010,403.22,0.26,6.2,16.6,138.07,30.11,24.64,36.45,0.89,-26.98,14.03,-59,548,-929,25.5,11.9,-6.1,25.4,1.3,-31.6,5.73,2.37,-28.7,29.7
2012-05-22 01:22:00,0.0,1.8920,0.0008,403.18,0.24,0.8,5.9,138.07,30.12,24.64,36.45,0.88,-26.97,14.25,-59,548,-929,25.5,11.7,-6.3,25.5,1.3,-31.6,5.73,2.36,-28.7,29.6
2012-05-22 01:23:00,0.0,1.8918,0.0008,403.13,0.21,4.2,12.4,138.07,30.12,24.64,36.45,0.89,-26.97,14.45,-59,549,-929,25.5,11.5,-6.6,25.5,1.3,-31.6,5.73,2.37,-28.7,29.7
2012-05-22 01:24:00,0.0,1.8917,0.0010,403.12,0.23,3.1,9.2,138.07,30.12,24.64,36.45,0.91,-26.96,14.65,-59,548,-929,25.5,11.4,-6.7,25.5,1.3,-31.6,5.73,2.37,-28.7,29.7
2012-05-22 01:25:00,0.0,1.8919,0.0010,403.05,0.22,2.3,10.3,138.07,30.12,24.64,36.45,0.94,-26.96,14.84,-59,548,-929,25.5,11.2,-7.0,25.5,1.3,-31.6,5.73,2.36,-28.7,29.7
2012-05-22 01:26:00,0.0,1.8915,0.0009,403.08,0.19,2.2,11.2,138.07,30.13,24.64,36.45,0.92,-26.96,15.02,-59,548,-929,25.5,10.9,-7.2,25.5,1.3,-31.6,5.73,2.37,-28.7,29.7
2012-05-22 01:27:00,0.0,1.8916,0.0008,403.11,0.24,3.1,9.3,138.07,30.13,24.64,36.44,0.94,-26.94,15.20,-59,548,-929,25.5,10.8,-7.5,25.5,1.3,-31.6,5.73,2.37,-28.7,29.7
2012-05-22 01:28:00,0.0,1.8914,0.0009,403.05,0.19,4.5,16.8,138.07,30.13,24.64,36.45,0.95,-26.94,15.36,-59,548,-929,25.5,10.6,-7.6,25.5,1.3,-31.6,5.73,2.36,-28.7,29.7
2012-05-22 01:29:00,0.0,1.8913,0.0010,403.09,0.23,3.4,11.5,138.07,30.13,24.64,36.45,0.95,-26.94,15.51,-59,548,-929,25.5,10.4,-7.9,25.5,1.3,-31.6,5.73,2.36,-28.7,29.7
2012-05-22 01:30:00,0.0,1.8916,0.0008,403.11,0.25,3.8,10.9,138.07,30.14,24.64,36.45,0.93,-26.94,15.67,-59,548,-929,25.5,10.2,-8.1,25.5,1.3,-31.5,5.73,2.37,-28.7,29.7
2012-05-22 01:31:00,0.0,1.8914,0.0010,403.12,0.21,2.4,9.7,138.07,30.14,24.64,36.45,0.90,-26.94,15.81,-59,549,-929,25.5,10.1,-8.3,25.5,1.3,-31.6,5.73,2.36,-28.7,29.7
2012-05-22 01:32:00,0.0,1.8918,0.0008,403.09,0.19,3.5,12.5,138.07,30.14,24.64,36.45,0.88,-26.93,15.94,-59,549,-929,25.5,9.9,-8.5,25.5,1.3,-31.6,5.73,2.36,-28.7,29.8
2012-05-22 01:33:00,0.0,1.8914,0.0010,403.03,0.19,3.1,9.2,138.07,30.14,24.64,36.45,0.90,-26.93,16.08,-59,548,-929,25.5,9.7,-8.7,25.5,1.3,-31.6,5.73,2.37,-28.7,29.8
2012-05-22 01:34:00,0.0,1.8914,0.0010,403.05,0.19,3.2,10.5,138.07,30.14,24.64,36.46,0.89,-26.93,16.20,-59,548,-929,25.5,9.6,-8.9,25.5,1.3,-31.6,5.73,2.36,-28.7,29.7
2012-05-22 01:35:00,0.0,1.8914,0.0009,403.12,0.23,2.3,9.3,138.07,30.14,24.64,36.45,0.93,-26.93,16.32,-59,549,-929,25.5,9.5,-9.1,25.5,1.3,-31.6,5.73,2.36,-28.7,29.7
2012-05-22 01:36:00,0.0,1.8917,0.0010,403.01,0.22,2.2,9.2,138.07,30.14,24.64,36.45,0.91,-26.93,16.44,-58,548,-929,25.5,9.3,-9.3,25.5,1.3,-31.6,5.73,2.36,-28.7,29.8
2012-05-22 01:37:00,0.0,1.8917,0.0008,403.08,0.23,2.8,10.1,138.07,30.15,24.64,36.45,0.93,-26.93,16.55,-59,549,-929,25.5,9.2,-9.4,25.5,1.3,-31.5,5.73,2.36,-28.7,29.8
2012-05-22 01:38:00,0.0,1.8918,0.0007,403.07,0.18,2.6,9.5,138.07,30.15,24.64,36.45,0.95,-26.93,16.65,-59,548,-929,25.5,9.1,-9.6,25.5,1.3,-31.6,5.73,2.36,-28.6,29.8
2012-05-22 01:39:00,0.0,1.8919,0.0008,402.97,0.23,4.3,11.4,138.07,30.15,24.64,36.46,0.95,-26.93,16.75,-59,548,-929,25.5,9.0,-9.7,25.5,1.3,-31.6,5.73,2.36,-28.6,29.8
2012-05-22 01:40:00,0.0,1.8918,0.0008,403.04,0.27,7.8,19.6,138.07,30.16,24.64,36.45,0.95,-26.93,16.85,-59,548,-929,25.5,8.9,-9.8,25.5,1.3,-31.6,5.73,2.36,-28.7,29.8
2012-05-22 01:41:00,0.0,1.8919,0.0009,403.15,0.21,4.8,10.5,138.07,30.16,24.64,36.45,0.92,-26.92,16.94,-59,549,-929,25.5,8.8,-10.0,25.5,1.3,-31.7,5.73,2.36,-28.6,29.7
2012-05-22 01:42:00,0.0,1.8917,0.0009,403.01,0.21,4.3,11.6,138.07,30.16,24.64,36.45,0.88,-26.93,17.03,-59,549,-929,25.5,8.7,-10.0,25.5,1.3,-31.6,5.73,2.36,-28.7,29.7
2012-05-22 01:43:00,0.0,1.8918,0.0010,403.05,0.21,2.0,8.0,138.07,30.16,24.64,36.45,0.88,-26.93,17.12,-59,549,-929,25.5,8.7,-10.1,25.5,1.3,-31.8,5.73,2.36,-28.6,29.8
2012-05-22 01:44:00,0.0,1.8927,0.0010,403.10,0.22,2.8,8.8,138.07,30.17,24.64,36.45,0.89,-26.93,17.20,-59,549,-929,25.5,8.7,-10.1,25.5,1.3,-31.7,5.73,2.36,-28.6,29.8
2012-05-22 01:45:00,0.0,1.8921,0.0008,403.15,0.19,3.4,10.4,138.07,30.17,24.64,36.45,0.90,-26.92,17.28,-59,549,-929,25.5,8.7,-10.1,25.5,1.3,-31.7,5.73,2.36,-28.6,29.8
2012-05-22 01:46:00,0.0,1.8918,0.0009,403.15,0.25,2.7,9.9,138.07,30.18,24.64,36.45,0.92,-26.93,17.35,-59,549,-929,25.5,8.8,-10.0,25.5,1.3,-31.7,5.73,2.36,-28.6,29.8
2012-05-22 01:47:00,0.0,1.8924,0.0008,403.24,0.23,1.2,7.5,138.07,30.18,24.64,36.45,1.08,-45.30,-6.04,-59,549,-929,25.5,8.8,-9.9,25.5,1.3,-31.8,5.42,2.42,-32.7,29.8
2012-05-22 01:48:00,0.0,1.8926,0.0010,403.17,0.22,2.9,9.6,138.07,30.18,24.64,36.45,0.93,-26.92,17.49,-59,549,-929,25.5,8.9,-9.9,25.5,1.3,-31.8,5.73,2.36,-28.6,29.8
2012-05-22 01:49:00,0.0,1.8924,0.0008,403.11,0.20,1.8,7.7,138.07,30.19,24.64,36.46,0.94,-26.93,17.56,-59,549,-929,25.5,8.9,-9.9,25.5,1.3,-31.8,5.73,2.36,-28.7,29.8
2012-05-22 01:50:00,0.0,1.8923,0.0009,403.23,0.22,5.8,14.2,138.07,30.19,24.64,36.45,0.95,-26.92,17.62,-59,549,-929,25.5,8.9,-9.9,25.5,1.3,-31.7,5.73,2.36,-28.7,29.8
2012-05-22 01:51:00,0.0,1.8921,0.0008,403.16,0.25,3.7,9.4,138.07,30.19,24.64,36.45,0.96,-26.92,17.68,-59,549,-929,25.5,8.9,-9.9,25.5,1.3,-31.8,5.73,2.36,-28.7,29.8
2012-05-22 01:52:00,0.0,1.8924,0.0008,403.24,0.28,2.2,9.3,138.07,30.19,24.64,36.45,0.93,-26.92,17.74,-59,549,-929,25.6,8.9,-9.8,25.5,1.3,-31.8,5.73,2.36,-28.7,29.8
2012-05-22 01:53:00,0.0,1.8925,0.0010,403.15,0.21,2.8,8.7,138.07,30.19,24.64,36.46,0.91,-26.92,17.79,-59,549,-929,25.5,8.9,-9.8,25.5,1.3,-31.8,5.73,2.36,-28.7,29.8
2012-05-22 01:54:00,0.0,1.8925,0.0010,403.14,0.22,0.3,6.0,138.07,30.20,24.64,36.45,0.89,-26.93,17.85,-59,549,-929,25.5,9.0,-9.7,25.5,1.3,-31.8,5.73,2.36,-28.7,29.8
2012-05-22 01:55:00,0.0,1.8923,0.0009,403.24,0.25,0.9,6.6,138.07,30.20,24.64,36.45,0.89,-26.93,17.90,-59,549,-929,25.6,9.0,-9.7,25.5,1.3,-31.7,5.73,2.36,-28.7,29.8
2012-05-22 01:56:00,0.0,1.8926,0.0010,403.14,0.21,1.2,6.9,138.07,30.20,24.64,36.46,0.91,-26.92,17.95,-59,549,-929,25.6,9.0,-9.7,25.5,1.3,-31.8,5.73,2.35,-28.7,29.8
2012-05-22 01:57:00,0.0,1.8923,0.0008,403.22,0.25,2.2,8.2,138.07,30.21,24.64,36.45,0.91,-26.92,17.99,-59,549,-929,25.6,9.0,-9.6,25.6,1.3,-31.8,5.73,2.36,-28.7,29.8
2012-05-22 01:58:00,0.0,1.8924,0.0009,403.15,0.20,8.0,14.8,138.07,30.21,24.64,36.46,0.92,-26.92,18.04,-59,549,-929,25.6,9.0,-9.7,25.6,1.3,-31.8,5.73,2.36,-28.7,29.8
2012-05-22 01:59:00,0.0,1.8923,0.0009,403.19,0.24,-0.1,3.2,138.07,30.21,24.64,36.45,0.93,-26.92,18.08,-59,549,-929,25.6,8.8,-9.9,25.6,1.3,-31.7,5.73,2.36,-28.7,29.8
2012-05-22 02:00:00,0.0,1.8925,0.0007,403.21,0.22,3.6,12.3,138.07,30.21,24.64,36.45,0.92,-26.92,18.12,-59,549,-929,25.6,8.8,-9.9,25.6,1.3,-31.8,5.73,2.35,-28.7,29.9
2012-05-22 02:01:00,0.0,1.8924,0.0009,403.17,0.20,4.6,10.7,138.07,30.21,24.64,36.45,0.94,-26.91,18.16,-59,549,-929,25.6,8.7,-10.1,25.6,1.3,-31.8,5.73,2.36,-28.6,29.8
2012-05-22 02:02:00,0.0,1.8920,0.0009,403.15,0.22,2.0,6.8,138.07,30.21,24.64,36.45,0.96,-26.92,18.20,-59,549,-929,25.6,8.6,-10.2,25.6,1.3,-31.7,5.73,2.37,-28.6,29.9
2012-05-22 02:03:00,0.0,1.8921,0.0009,403.12,0.20,1.0,6.5,138.07,30.22,24.64,36.45,0.95,-26.91,18.24,-59,549,-929,25.6,8.7,-10.0,25.6,1.3,-31.7,5.73,2.36,-28.6,29.9
2012-05-22 02:04:00,0.0,1.8921,0.0010,403.12,0.26,2.3,8.8,138.07,30.22,24.64,36.45,0.92,-26.91,18.27,-59,549,-929,25.6,8.8,-9.9,25.6,1.3,-31.7,5.73,2.36,-28.6,29.9
2012-05-22 02:05:00,0.0,1.8919,0.0009,403.12,0.19,2.8,11.9,138.07,30.22,24.64,36.45,0.89,-26.91,18.30,-59,549,-929,25.6,8.8,-10.0,25.6,1.3,-31.7,5.73,2.36,-28.6,29.9
2012-05-22 02:06:00,0.0,1.8921,0.0009,403.20,0.24,2.6,12.1,138.07,30.23,24.64,36.45,0.90,-26.91,18.33,-59,549,-929,25.6,8.8,-10.0,25.6,1.3,-31.7,5.73,2.36,-28.6,30.0
2012-05-22 02:07:00,0.0,1.8923,0.0009,403.21,0.19,3.8,11.1,138.07,30.23,24.64,36.45,0.90,-26.91,18.36,-59,549,-929,25.6,8.8,-9.9,25.6,1.3,-31.8,5.73,2.35,-28.6,30.0
2012-05-22 02:08:00,0.0,1.8918,0.0008,403.21,0.21,2.5,10.6,138.07,30.24,24.64,36.45,0.90,-26.91,18.40,-59,549,-929,25.6,8.8,-9.9,25.6,1.3,-31.7,5.73,2.36,-28.6,29.9
2012-05-22 02:09:00,0.0,1.8922,0.0009,403.27,0.21,1.7,6.1,138.07,30.24,24.64,36.44,0.91,-26.91,18.43,-59,549,-929,25.7,8.8,-9.9,25.6,1.3,-31.7,5.73,2.36,-28.6,30.0
2012-05-22 02:10:00,0.0,1.8922,0.0011,403.25,0.22,4.4,12.0,138.07,30.24,24.64,36.45,0.91,-26.91,18.45,-59,549,-929,25.6,8.9,-9.8,25.6,1.3,-31.7,5.73,2.36,-28.6,30.0
2012-05-22 02:11:00,0.0,1.8923,0.0009,403.20,0.20,1.1,7.2,138.07,30.25,24.64,36.45,0.93,-26.91,18.48,-59,549,-929,25.6,8.9,-9.8,25.6,1.3,-31.7,5.73,2.35,-28.6,30.0
2012-05-22 02:12:00,0.0,1.8921,0.0007,403.24,0.19,5.1,12.2,138.07,30.25,24.64,36.45,0.93,-26.90,18.50,-59,549,-929,25.6,8.9,-9.7,25.6,1.3,-31.7,5.73,2.36,-28.6,30.0
2012-05-22 02:13:00,0.0,1.8924,0.0007,403.24,0.22,0.1,3.7,138.07,30.26,24.64,36.45,0.94,-26.91,18.53,-59,549,-929,25.6,9.0,-9.6,25.6,1.3,-31.7,5.73,2.36,-28.6,30.0
2012-05-22 02:14:00,0.0,1.8925,0.0011,403.29,0.19,4.6,12.8,138.07,30.26,24.64,36.45,0.95,-26.90,18.55,-59,549,-929,25.6,9.0,-9.6,25.6,1.3,-31.7,5.73,2.36,-28.6,30.0
2012-05-22 02:15:00,0.0,1.8922,0.0011,403.29,0.23,2.0,9.3,138.07,30.26,24.64,36.45,0.95,-26.90,18.57,-59,549,-929,25.7,9.0,-9.6,25.6,1.3,-31.8,5.73,2.36,-28.6,30.0
2012-05-22 02:16:00,0.0,1.8922,0.0009,403.16,0.23,2.9,9.3,138.07,30.27,24.64,36.45,0.93,-26.90,18.59,-59,549,-929,25.6,9.0,-9.6,25.6,1.3,-31.7,5.73,2.36,-28.6,30.0
2012-05-22 02:17:00,0.0,1.8925,0.0010,403.27,0.22,3.8,12.2,138.07,30.27,24.64,36.44,0.91,-26.90,18.61,-59,549,-929,25.7,8.9,-9.7,25.6,1.3,-31.7,5.73,2.36,-28.6,30.0
2012-05-22 02:18:00,0.0,1.8922,0.0008,403.18,0.20,1.7,7.3,138.07,30.27,24.64,36.45,0.90,-26.90,18.63,-59,549,-929,25.7,8.9,-9.8,25.6,1.3,-31.8,5.73,2.36,-28.6,30.0
2012-05-22 02:19:00,0.0,1.8923,0.0008,403.20,0.24,1.5,6.0,138.07,30.27,24.64,36.45,0.88,-26.90,18.65,-59,549,-929,25.7,9.0,-9.5,25.6,1.3,-31.7,5.73,2.36,-28.6,30.0
2012-05-22 02:20:00,0.0,1.8925,0.0009,403.21,0.23,3.5,9.8,138.07,30.28,24.64,36.45,0.87,-26.90,18.67,-59,549,-929,25.7,9.0,-9.6,25.6,1.3,-31.8,5.73,2.36,-28.6,30.0
2012-05-22 02:21:00,0.0,1.8920,0.0009,403.22,0.21,2.9,10.2,138.07,30.28,24.64,36.45,0.91,-26.90,18.68,-59,549,-929,25.7,9.0,-9.6,25.7,1.3,-31.7,5.73,2.36,-28.6,30.0